Regional Weather Roundup
Issued by NWS Little Rock, AR

Home | Current Version | Previous Version | Text Only | Print | Product List | Glossary Off
Versions: 1 2 3 4 5 6 7 8 9 10 11 12 13 14 15 16 17 18 19 20 21 22 23 24 25 26 27 28 29 30 31 32 33 34 35 36 37 38 39 40 41 42 43 44 45 46 47 48 49 50

000
ASUS44 KLZK 060005
RWRLZK

WEATHER ROUNDUP FOR ARKANSAS
NATIONAL WEATHER SERVICE LITTLE ROCK AR
600 PM CST THU MAR 05 2015

NOTE: "FAIR" INDICATES FEW OR NO CLOUDS BELOW 12,000 FEET WITH NO
SIGNIFICANT WEATHER AND/OR OBSTRUCTIONS TO VISIBILITY.

ARZ001-003-010-029-060100-
NORTHWEST ARKANSAS

CITY           SKY/WX    TMP DP  RH WIND       PRES   REMARKS
FAYETTEVILLE   CLEAR     34  14  43 N3        30.50R
6HR MIN TEMP:  31; 6HR MAX TEMP:  37;

FORT SMITH     CLEAR     40  15  36 N6        30.54R
6HR MIN TEMP:  33; 6HR MAX TEMP:  43;

HARRISON       CLEAR     30   9  41 N7        30.50R WCI  23
6HR MIN TEMP:  29; 6HR MAX TEMP:  34;

BENTONVILLE    CLEAR     36  16  44 E5        30.50S
6HR MIN TEMP:  30; 6HR MAX TEMP:  37; 6HR PCP:  0.19;

ROGERS         CLEAR     32  15  49 NE6       30.50S WCI  26
6HR MIN TEMP:  31; 6HR MAX TEMP:  35;

SILOAM SPGS    CLEAR     34  14  44 N5        30.51S WCI  30
6HR MIN TEMP:  30; 6HR MAX TEMP:  37; 6HR PCP:  0.05;

HIGHFILL       CLEAR     35  14  42 NW3       30.49R
6HR MIN TEMP:  33; 6HR MAX TEMP:  38;

SPRINGDALE     CLEAR     34  14  44 NE5       30.51S WCI  30
$$

ARZ004-005-016-060100-
NORTH CENTRAL ARKANSAS

CITY           SKY/WX    TMP DP  RH WIND       PRES   REMARKS
BATESVILLE     CLEAR     34   7  32 NW6       30.55R WCI  29
6HR MIN TEMP:  34; 6HR MAX TEMP:  36;

FLIPPIN        CLEAR     32   9  37 N5        30.52S WCI  27
6HR MIN TEMP:  30; 6HR MAX TEMP:  36; 6HR PCP:  0.20;

MTN HOME       CLEAR     31   6  35 CALM      30.52R
6HR MIN TEMP:  30; 6HR MAX TEMP:  35;

$$

ARZ040-041-060100-
WEST CENTRAL ARKANSAS

CITY           SKY/WX    TMP DP  RH WIND       PRES   REMARKS
MENA           CLEAR     37  18  44 N6        30.50S
MOUNT IDA      CLEAR     38  12  34 N3        30.48S
6HR MIN TEMP:  34; 6HR MAX TEMP:  41;

$$

ARZ009-017-025-026-028-060100-
NORTHEAST ARKANSAS

CITY           SKY/WX    TMP DP  RH WIND       PRES   REMARKS
CORNING        FAIR      23  16  74 E12       30.57R WCI  12
JONESBORO      CLEAR     21  12  68 E5        30.56R WCI  15
6HR MIN TEMP:  21; 6HR MAX TEMP:  31; 6HR PCP: TRACE;

NEWPORT        CLEAR     28  15  58 CALM      30.57R
6HR MIN TEMP:  27; 6HR MAX TEMP:  32; 6HR PCP:  0.14;

WALNUT RIDGE   CLEAR     27  12  54 CALM      30.54F
6HR MIN TEMP:  27; 6HR MAX TEMP:  34; 6HR PCP:  0.01;

BLYTHEVILLE    CLEAR     19  11  70 NE6       30.57R WCI  11
6HR MIN TEMP:  18; 6HR MAX TEMP:  28;

$$

ARZ022-023-033-042-044-060100-
CENTRAL ARKANSAS

CITY           SKY/WX    TMP DP  RH WIND       PRES   REMARKS
LITTLE ROCK    CLEAR     35  11  36 N7        30.55R WCI  29
6HR MIN TEMP:  34; 6HR MAX TEMP:  38;

N LITTLE ROCK  CLEAR     35  13  41 N7        30.55R WCI  29
6HR MIN TEMP:  33; 6HR MAX TEMP:  37;

JACKSONVILLE   CLEAR     36  10  35 N5        30.53S
6HR MIN TEMP:  34; 6HR MAX TEMP:  38; 6HR PCP:  0.01;

SEARCY         CLEAR     31  14  49 NE8       30.56R WCI  23
6HR MIN TEMP:  31; 6HR MAX TEMP:  37; 6HR PCP:  0.06;

HOT SPRINGS    CLEAR     38  10  31 NE6       30.52S
6HR MIN TEMP:  33; 6HR MAX TEMP:  40;

RUSSELLVILLE   CLEAR     38  10  31 N9        30.53R
6HR MIN TEMP:  36; 6HR MAX TEMP:  41;

CLINTON        FAIR      36   9  32 NW3       30.56R
$$

ARZ036-060100-
EAST ARKANSAS

CITY           SKY/WX    TMP DP  RH WIND       PRES   REMARKS
WEST MEMPHIS   CLEAR     25  13  60 N5        30.55R WCI  19
6HR MIN TEMP:  25; 6HR MAX TEMP:  29;

$$

ARZ050-053-066-070-073-060100-
SOUTHWEST ARKANSAS

CITY           SKY/WX    TMP DP  RH WIND       PRES   REMARKS
ARKADELPHIA    FAIR      38  23  55 NE5       30.55R
6HR MIN TEMP:  34; 6HR MAX TEMP:  39; 6HR PCP:  0.03;

CAMDEN         CLEAR     37  10  32 MISG      30.54S
TEXARKANA      CLEAR     38  19  46 NE12      30.52S
6HR MIN TEMP:  33; 6HR MAX TEMP:  41;

EL DORADO      CLEAR     36  19  50 N6        30.53S
6HR MIN TEMP:  32; 6HR MAX TEMP:  39;

DE QUEEN       CLEAR     39  18  42 NE9       30.52S
6HR MIN TEMP:  37; 6HR MAX TEMP:  43;

$$

ARZ056-057-069-060100-
SOUTHEAST ARKANSAS

CITY           SKY/WX    TMP DP  RH WIND       PRES   REMARKS
PINE BLUFF     CLEAR     31  13  47 NE5       30.55S WCI  26
6HR MIN TEMP:  28; 6HR MAX TEMP:  34;

STUTTGART      CLEAR     30  16  55 NE7       30.55S WCI  23
6HR MIN TEMP:  28; 6HR MAX TEMP:  34; 6HR PCP:  0.01;

MONTICELLO     CLEAR     34  13  41 VRB5      30.53S WCI  30
6HR MIN TEMP:  32; 6HR MAX TEMP:  37;


$$





USA.gov is the U.S. government's official web portal to all federal, state and local government web resources and services.